This is the latest recevied weather packets stored in our database for station/object K5SVV. If no packets are shown the sender has not sent any weather packets the latest 10 day(s).
| Time | Temp. | Humidity | Pressure | Rain* | Wind** | Luminosity | Snow |
|---|---|---|---|---|---|---|---|
| 1787931526 | 33.33° C | 61% | 1017.8 hPa | 0 mm | - | 646 W/m² | - |
| 1787931221 | 32.78° C | 62% | 1017.6 hPa | 0 mm | - | 629 W/m² | - |
| 1787930620 | 32.78° C | 63% | 1017.6 hPa | 0 mm | - | 564 W/m² | - |
| 1787930315 | 32.22° C | 63% | 1017.6 hPa | 0 mm | - | 551 W/m² | - |
| 1787930010 | 31.67° C | 66% | 1017.6 hPa | 0 mm | - | 492 W/m² | - |
| 1787929708 | 31.67° C | 65% | 1017.5 hPa | 0 mm | - | 510 W/m² | - |
| 1787929404 | 31.67° C | 66% | 1017.4 hPa | 0 mm | - | 530 W/m² | - |
| 1787929101 | 31.11° C | 67% | 1017.5 hPa | 0 mm | - | 503 W/m² | - |
| 1787928796 | 30.56° C | 68% | 1017.4 hPa | 0 mm | - | 445 W/m² | - |
| 1787928495 | 30° C | 70% | 1017.3 hPa | 0 mm | - | 463 W/m² | - |
| 1787928189 | 30.56° C | 69% | 1017.5 hPa | 0 mm | - | 444 W/m² | - |
| 1787927888 | 30° C | 71% | 1017.5 hPa | 0 mm | - | 414 W/m² | - |
| 1787927583 | 30.56° C | 69% | 1017.5 hPa | 0 mm | - | 383 W/m² | - |
| 1787927278 | 30° C | 70% | 1017.3 hPa | 0 mm | - | 104 W/m² | - |
| 1787926973 | 29.44° C | 71% | 1017.2 hPa | 0 mm | - | 360 W/m² | - |
| 1787926668 | 29.44° C | 73% | 1017.1 hPa | 0 mm | - | 338 W/m² | - |
| 1787926366 | 29.44° C | 72% | 1017.3 hPa | 0 mm | - | 322 W/m² | - |
| 1787926062 | 29.44° C | 73% | 1017.1 hPa | 0 mm | - | 279 W/m² | - |
| 1787925761 | 28.89° C | 73% | 1017.1 hPa | 0 mm | - | 275 W/m² | - |
| 1787925460 | 28.33° C | 74% | 1017.1 hPa | 0 mm | - | 255 W/m² | - |
| 1787925155 | 28.33° C | 74% | 1017.3 hPa | 0 mm | - | 227 W/m² | - |
| 1787924853 | 28.33° C | 75% | 1017.2 hPa | 0 mm | - | 203 W/m² | - |
| 1787924549 | 27.78° C | 76% | 1017.1 hPa | 0 mm | - | 189 W/m² | - |
| 1787924244 | 27.22° C | 76% | 1017.4 hPa | 0 mm | - | 170 W/m² | - |
| 1787923939 | 27.22° C | 77% | 1017.3 hPa | 0 mm | - | 167 W/m² | - |
* Rain latest hour (hover to see other rain measurements)
** Current wind speed in m/s (hover to see current wind gust speed)